Regional Weather Roundup
Issued by NWS Upton, NY

Home | Current Version | Previous Version | Text Only | Print | Product List | Glossary On
Versions: 1 2 3 4 5 6 7 8 9 10 11 12 13 14 15 16 17 18 19 20 21 22 23 24 25 26 27
000
ASUS41 KOKX 181308
RWROKX

REGIONAL WEATHER ROUNDUP
NATIONAL WEATHER SERVICE NEW YORK NY
800 AM EST SAT NOV 18 2017

NOTE: "FAIR" INDICATES FEW OR NO CLOUDS BELOW 12,000 FEET WITH NO
SIGNIFICANT WEATHER AND/OR OBSTRUCTIONS TO VISIBILITY.

NYZ071-072-176-178-NJZ106-104-181400-
NEW YORK CITY METRO AREA

CITY           SKY/WX    TMP DP  RH WIND       PRES   REMARKS
Central Park   CLOUDY    40  27  59 CALM      29.98F
Bronx Bot Gard   N/A     36  25  64 NE2       29.98F
LaGuardia APRT CLOUDY    41  26  55 CALM      29.97F
Kennedy INTL   CLOUDY    42  32  67 S12       29.99F
Breezy Point     N/A     43 N/A N/A S12         N/A
Newark/Liberty PTSUNNY   34  24  67 CALM      29.97F
Teterboro      CLOUDY    32  23  69 CALM      29.96F
$$

NYZ177-179-078>081-181400-
LONG ISLAND NEW YORK

CITY           SKY/WX    TMP DP  RH WIND       PRES   REMARKS
Jones Beach      N/A     46 N/A N/A SW8         N/A
Matinecock PT    N/A     37 N/A N/A SE2         N/A
Farmingdale    CLOUDY    31  25  78 CALM      29.98F
MacArthur/ISP  CLOUDY    32  28  85 CALM      29.98F
Shirley        CLOUDY    30  26  85 CALM      29.98F
Mt Sinai Harb    N/A    N/A N/A N/A S1          N/A
Westhampton    CLOUDY    28  25  88 CALM      29.99F
East Hampton   FAIR      28  25  86 CALM      29.99F
Southold       NOT AVBL
Montauk          N/A     43  27  53 VRB3      29.99F
$$

NYZ052-065-067-181400-
HUDSON VALLEY

CITY           SKY/WX    TMP DP  RH WIND       PRES   REMARKS
White Plains   CLOUDY    33  24  69 CALM      29.95F
Larchmont Harb   N/A     37 N/A N/A MISG        N/A
Croton On Huds   N/A    N/A N/A N/A MISG        N/A
Newburgh       PTSUNNY   27  23  86 CALM      29.93F
Montgomery     CLOUDY    25  21  85 CALM      29.92F
Poughkeepsie   CLOUDY    25  19  78 CALM      29.93F
Albany         CLOUDY    26  19  74 CALM      29.90F
$$

NJZ001-105-106-008-010-013-015-019>022-104-181400-
NEW JERSEY

CITY           SKY/WX    TMP DP  RH WIND       PRES   REMARKS
Newark/Liberty PTSUNNY   34  24  67 CALM      29.97F
Teterboro      CLOUDY    32  23  69 CALM      29.96F
Caldwell       CLOUDY    28  24  85 CALM      29.97F
Somerville     CLOUDY    26  23  88 CALM      29.95F
Linden         FAIR      32  24  71 CALM      29.98F
Perth Amboy      N/A     34 N/A N/A W1          N/A
Sussex         CLOUDY    26  24  92 CALM      29.92F
Andover        NOT AVBL
Trenton        CLOUDY    31  28  89 CALM      29.95F
Millville      CLOUDY    36  35  96 CALM      29.97F
Atlantic City  CLOUDY    42  35  76 S7        29.98F
Wrightstown    CLOUDY    34  29  82 CALM      29.94F
Toms River     CLOUDY    29  27  92 CALM      29.98F
Belmar         CLOUDY    34  24  67 S3        29.98F
$$

PAZ047>061-062-071-181400-
EASTERN PENNSYLVANIA

CITY           SKY/WX    TMP DP  RH WIND       PRES   REMARKS
Philadelphia   CLOUDY    42  35  76 S8        29.96F
Allentown      CLOUDY    31  24  75 NE5       29.93F WCI  26
Scranton       CLOUDY    39  25  57 SW8       29.86F WCI  33
$$

CTZ002-004>006-009-010-012-RIZ004-006-007-MAZ004-011-015-181400-
SOUTHERN NEW ENGLAND
 IN CT

CITY           SKY/WX    TMP DP  RH WIND       PRES   REMARKS
Bradley INTL   CLOUDY    27  21  78 CALM      29.98F
Hartford       CLOUDY    29  21  72 CALM      29.99F
Danbury        CLOUDY    26  19  74 CALM      29.97S
Wtrbury/Oxford CLOUDY    27  19  72 CALM      29.95F
Norwalk Harbor   N/A    N/A N/A N/A N5          N/A
Bridgeport     CLOUDY    31  22  69 CALM      29.99S
Meriden        MOSUNNY   24  20  84 CALM      29.98F
New Haven      CLOUDY    29  22  75 CALM      29.98F
Chester        FAIR      28  16  59 CALM      29.96F
Groton         MOSUNNY   30  24  78 NE3       29.98F
Wilimantic     CLOUDY    26  22  84 CALM      29.98F

 IN RI

CITY           SKY/WX    TMP DP  RH WIND       PRES   REMARKS
Providence     MOSUNNY   32  19  58 CALM      29.99S
Block Island   SUNNY     43  30  60 W7        29.99F
Westerly       MOSUNNY   30  23  75 CALM      29.99F
 IN MA

CITY           SKY/WX    TMP DP  RH WIND       PRES   REMARKS
Boston         MOSUNNY   36  17  46 W6        29.98S WCI  31
Worcester      CLOUDY    30  14  51 SW6       29.92F WCI  24
Westfield      MOSUNNY   25  22  88 CALM      29.96F
Provincetown   SUNNY     39  21  48 W6        29.99S WCI  35
Nantucket      SUNNY     41  26  55 NW6       29.99F
$$

ANZ330-335-338-340-345-350-353-355-181400-
COASTAL MARINE OBSERVATIONS


STATION/POSITION TIME  SKY/WX   TEMP    WIND        PRES    VSBY  WAVE
                                AIR SEA DIR/SP/G                  HT/PER
                 (UTC)          (F)     (DEG/KT/KT) (MB)    (MI)  (FT/S)
NY HARB ENTRANCE 1150            48 57  210/ 12/ 16 1014.9          1/11
20 S FIRE ISLAND 1150            49 57  220/ 10/ 14 1016.0          1/11
GREAT SOUTH BAY  1215            38 46   CALM  /  2   N/A
HUDSON CANYON    1150            51 60  220/ 12/ 16 1015.9          2/ 5
KINGS POINT      NOT AVBL
EXECUTION ROCKS  1230            41     190/  8/ 12   N/A
WESTERN LI SOUND 1149            40     190/  8/ 10   N/A           0
CENTRAL LI SOUND 1230            45     230/ 12/ 14   N/A           1
ROBBINS REEF     NOT AVBL
$$


>>>>>>>>>>>>>>>>>>>>>>>>>>>> KEY <<<<<<<<<<<<<<<<<<<<<<<<<<<
>                                                          <
>     SKY/WX - Sky Condition/Present Weather               <
>     TMP    - Temperature in Fahrenheit                   <
>     DP     - Dew Point in Fahrenheit                     <
>     RH     - Relative Humidity in Percent                <
>     WIND   - Direction (from) and Speed in MPH           <
>     PRES   - Mean Sea Level Pressure (inches of Hg)      <
>     WCI    - Wind Chill Index                            <
>     VSB    - VISIBILITY IN MILES                         <
>     HX     - HEAT INDEX                                  <
>     TC     - TEMPERATURE IN CELSIUS                      <
>     VRB    - VARIABLE WIND DIRECTION                     <
>                                                          <
>>>>>>>>>>>>>>>>>>>>>>>>>>>> KEY <<<<<<<<<<<<<<<<<<<<<<<<<<<




USA.gov is the U.S. government's official web portal to all federal, state and local government web resources and services.